Content
SEND FEEDBACK

Daily
Averages
Monthly
Summary
United States of America

BETHEL, KANSAS


Home > North America > United States > Kansas
Elevation: 1010 feet     Latitude: 39 09N     Longitude: 094 47W

WEATHER
 
SELECT A DAY
Number of Records: 192,594;   Date Range: 1/1/95 - 10/19/14
 
SHARE

PRINT THIS DATA

[ ← Previous Day ]
WEATHER ALMANAC - FEBRUARY 13, 2013
[ Next Day → ]
[ °C ]   °F
Weather ElementAverageHighLow
Temperature42.8 °F57 °F (2:54 pm)28.9 °F (6:54 am)
Dewpoint23.4 °F26.1 °F (10:54 am)21 °F (4:54 pm)
Humidity49.4 %75 % (6:54 am)26 % (4:54 pm)
Barometer29.87 in29.95 in (1:54 am)29.80 in (4:54 pm)
Wind Speed6.5 mph13.8 mph (4:54 pm)
Wind Gust20.7 mph (3:54 pm)
Weather ElementAverage
Visibility10 mi
Wind DirectionSW (227.4 °)

Weather ElementTotal
Precipitation---
Heating Degree Days22.1 (Base 65)
Averaged from 23 records on February 13, 2013
WEATHER CONDITIONS BREAKOUT
WIND DIRECTION BREAKOUT
WEATHER BY HOUR - FEBRUARY 13, 2013
[ °C ]   °F
Local TimeTemperatureDewpointHumidityBarometerVisibilityWind DirectionWind SpeedGust SpeedPrecipitationEventsConditions
1:54 AM32.0 °F21.9 °F66 %29.95 in10.0 miSSW (210°)4.6 mphClear
2:54 AM34.0 °F23.0 °F64 %29.93 in10.0 miWSW (250°)5.8 mphClear
3:54 AM33.1 °F23.0 °F66 %29.91 in10.0 miWSW (250°)3.5 mphClear
4:54 AM32.0 °F23.0 °F69 %29.91 in10.0 miSW (220°)4.6 mphClear
5:54 AM30.0 °F21.9 °F72 %29.91 in10.0 miSW (230°)4.6 mphClear
6:54 AM28.9 °F21.9 °F75 %29.92 in10.0 miSW (230°)5.8 mphClear
7:54 AM30.0 °F23.0 °F75 %29.92 in10.0 miSW (220°)5.8 mphClear
8:54 AM33.1 °F24.1 °F70 %29.93 in10.0 miCalmClear
9:54 AM37.9 °F25.0 °F60 %29.92 in10.0 miSSW (210°)4.6 mphClear
10:54 AM44.1 °F26.1 °F49 %29.92 in10.0 miWSW (240°)4.6 mphClear
11:54 AM46.9 °F25.0 °F42 %29.91 in10.0 miWSW (250°)8.1 mphClear
12:54 PM51.1 °F25.0 °F36 %29.87 in10.0 miWest (270°)6.9 mphClear
1:54 PM54.0 °F23.0 °F30 %29.84 in10.0 miSW (230°)11.5 mph19.6 mphClear
2:54 PM57.0 °F23.0 °F27 %29.81 in10.0 miWest (270°)9.2 mphClear
3:54 PM55.9 °F21.9 °F27 %29.81 in10.0 miSW (230°)12.7 mph20.7 mphClear
4:54 PM55.9 °F21.0 °F26 %29.80 in10.0 miWSW (250°)13.8 mph20.7 mphClear
5:54 PM53.1 °F23.0 °F31 %29.81 in10.0 miWest (270°)9.2 mph16.1 mphClear
6:54 PM50.0 °F24.1 °F36 %29.82 in10.0 miWSW (240°)5.8 mphClear
7:54 PM46.9 °F24.1 °F41 %29.83 in10.0 miSW (230°)5.8 mphClear
8:54 PM46.0 °F25.0 °F44 %29.82 in10.0 miSSW (210°)4.6 mphClear
9:54 PM44.1 °F24.1 °F45 %29.82 in10.0 miSW (230°)5.8 mphClear
10:54 PM45.0 °F23.0 °F42 %29.81 in10.0 miWSW (240°)6.9 mphClear
11:54 PM44.1 °F23.0 °F43 %29.83 in10.0 miWSW (250°)5.8 mphClear
Hourly data recorded from KMKC, located miles away from Bethel, Kansas







STORIES FROM OUR PARTNERS